Location: Barcelona
(41.3829°N, 2.1774°E)
Time: 20:13:56
(UTC+00:00)

ISS - Pass Details

Date: 10 July 2025
Orbit: 413 x 417 km, 51.6° (Epoch: 13 July)

Event Time Altitude Azimuth Distance (km) Brightness Sun altitude
Rises 04:02:00 0° 287° (WNW) 2,356 -0.3 -4.8°
Reaches altitude 10° 04:05:10 10° 254° (WSW) 1,489 -1.6 -4.3°
Maximum altitude 04:06:30 12° 231° (SW) 1,373 -1.8 -4.1°
Drops below altitude 10° 04:07:50 10° 207° (SSW) 1,485 -1.5 -3.9°
Sets 04:10:58 0° 174° (S) 2,342 -0.2 -3.4°
